WB6TTB Weather Reports


Display with metric or nautical units.
time (UTC)temp
F
wind
direction
speed
MPH
gust
MPH
rain 1hr
in
rain 24hr
in
rain mn
in
humidity
%
barometer
mb
20260505024803 53 0 0.0 0.0 0.00 0.00 0.00 89 1013.7
20260505021803 54 0 0.0 0.0 0.00 0.00 0.00 88 1013.6
20260505021203 54 0 0.0 0.0 0.00 0.00 0.00 88 1013.6
20260505010004 55 0 0.0 0.0 0.00 0.00 0.00 90 1014.1
20260505000003 56 0 0.0 0.0 0.00 0.00 0.00 90 1014.3
20260504225404 57 0 0.0 0.0 0.00 0.00 0.00 86 1014.3
20260504215403 60 0 0.0 0.0 0.00 0.00 0.00 82 1014.4
20260504202403 61 0 0.0 3.0 0.00 0.00 0.00 81 1014.4
20260504201804 60 290 0.0 3.0 0.00 0.00 0.00 81 1014.4
20260504201204 60 285 0.0 3.0 0.00 0.00 0.00 80 1014.4
20260504200604 61 276 0.0 4.0 0.00 0.00 0.00 79 1014.5
20260504200004 62 0 0.0 0.0 0.00 0.00 0.00 80 1014.6
20260504195403 61 0 0.0 0.0 0.00 0.00 0.00 80 1014.5
20260504194203 61 0 0.0 0.0 0.00 0.00 0.00 80 1014.6
20260504193003 60 0 0.0 0.0 0.00 0.00 0.00 79 1014.6
20260504190603 60 0 0.0 0.0 0.00 0.00 0.00 78 1014.8
20260504190003 60 0 0.0 0.0 0.00 0.00 0.00 77 1014.8
20260504185403 60 0 0.0 0.0 0.00 0.00 0.00 79 1014.7
20260504184803 60 0 0.0 0.0 0.00 0.00 0.00 77 1014.7
20260504184203 60 0 0.0 0.0 0.00 0.00 0.00 76 1014.8
20260504183604 60 0 0.0 0.0 0.00 0.00 0.00 78 1014.8
20260504183004 60 0 0.0 0.0 0.00 0.00 0.00 76 1014.7
20260504182404 60 0 0.0 0.0 0.00 0.00 0.00 79 1014.7
20260504181804 59 0 0.0 0.0 0.00 0.00 0.00 81 1014.6
20260504180603 59 0 0.0 0.0 0.00 0.00 0.00 80 1014.6
20260504180004 59 0 0.0 0.0 0.00 0.00 0.00 82 1014.6
20260504175403 59 0 0.0 0.0 0.00 0.00 0.00 81 1014.6
20260504174804 59 0 0.0 0.0 0.00 0.00 0.00 81 1014.5
20260504173003 58 0 0.0 0.0 0.00 0.00 0.00 84 1014.4
20260504171803 58 0 0.0 0.0 0.00 0.00 0.00 85 1014.4
20260504150603 53 0 0.0 0.0 0.00 0.00 0.00 95 1014.1
20260504141204 51 0 0.0 0.0 0.00 0.00 0.00 96 1014.0
20260504140604 50 0 0.0 0.0 0.00 0.00 0.00 96 1013.9
20260504130604 51 0 0.0 0.0 0.00 0.00 0.00 96 1013.6
20260504110604 51 0 0.0 0.0 0.00 0.00 0.00 95 1013.4
20260504100603 52 0 0.0 0.0 0.00 0.00 0.00 95 1013.3
20260504081203 52 0 0.0 0.0 0.00 0.00 0.00 95 1013.6
20260504080603 52 0 0.0 0.0 0.00 0.00 0.00 95 1013.5
20260504050603 53 0 0.0 0.0 0.00 0.00 0.00 94 1013.5
20260504050003 53 0 0.0 0.0 0.00 0.00 0.00 94 1013.4
20260504045403 53 0 0.0 0.0 0.00 0.00 0.00 94 1013.4
20260504043003 53 0 0.0 0.0 0.00 0.00 0.00 94 1013.1
20260504042403 53 0 0.0 0.0 0.00 0.00 0.00 93 1013.1
20260504041803 53 0 0.0 0.0 0.00 0.00 0.00 93 1013.0
20260504041203 53 0 0.0 0.0 0.00 0.00 0.00 93 1013.1
20260504040603 53 0 0.0 0.0 0.00 0.00 0.00 93 1013.0
20260504040003 53 0 0.0 0.0 0.00 0.00 0.00 92 1012.9
20260504035403 53 0 0.0 0.0 0.00 0.00 0.00 92 1012.8
20260504034804 53 0 0.0 0.0 0.00 0.00 0.00 92 1012.9
20260504033604 54 0 0.0 0.0 0.00 0.00 0.00 91 1012.7